Location: Rowland
(34.5359°N, 79.2929°W)
Time: 18:32:06
(UTC+00:00)

SR - Pass Details

Date: 06 October 2022
Orbit: 577 x 874 km, 66.7° (Epoch: 05 December)

Event Time Altitude Azimuth Distance (km) Brightness Sun altitude
Rises 00:41:12 0° 197° (SSW) 3,380 ? -22.5°
Reaches altitude 10° 00:43:37 10° 195° (SSW) 2,475 ? -23.0°
Maximum altitude 00:49:21 67° 113° (ESE) 942 ? -24.2°
Enters shadow 00:50:55 48° 52° (NE) 1,136 ? -24.5°
Drops below altitude 10° 00:55:12 10° 32° (NNE) 2,524 - -25.3°
Sets 00:57:42 0° 30° (NNE) 3,453 - -25.8°
